TimeCDT,TemperatureF,Dew PointF,Humidity,Sea Level PressureIn,VisibilityMPH,Wind Direction,Wind SpeedMPH,Gust SpeedMPH,PrecipitationIn,Events,Conditions,WindDirDegrees,DateUTC
12:54 AM,78.1,72.0,81,29.96,10.0,SSW,4.6,-,N/A,,Mostly Cloudy,200,2013-08-30 05:54:00
1:54 AM,78.1,72.0,81,29.95,10.0,SSW,5.8,-,N/A,,Overcast,210,2013-08-30 06:54:00
2:54 AM,80.1,72.0,76,29.95,10.0,SW,8.1,-,N/A,,Mostly Cloudy,230,2013-08-30 07:54:00
3:54 AM,78.1,71.1,79,29.94,10.0,SSW,4.6,-,N/A,,Clear,200,2013-08-30 08:54:00
4:54 AM,75.0,71.1,87,29.95,10.0,South,5.8,-,N/A,,Clear,190,2013-08-30 09:54:00
5:54 AM,75.0,71.1,87,29.95,10.0,SW,5.8,-,N/A,,Clear,220,2013-08-30 10:54:00
6:54 AM,77.0,71.1,82,29.95,10.0,SW,6.9,-,N/A,,Clear,230,2013-08-30 11:54:00
7:54 AM,81.0,72.0,74,29.96,10.0,WSW,4.6,-,N/A,,Partly Cloudy,240,2013-08-30 12:54:00
8:54 AM,86.0,70.0,59,29.96,10.0,WSW,11.5,-,N/A,,Clear,250,2013-08-30 13:54:00
9:54 AM,90.0,69.1,50,29.96,10.0,West,12.7,-,N/A,,Partly Cloudy,260,2013-08-30 14:54:00
10:54 AM,91.9,69.1,47,29.94,10.0,West,15.0,-,N/A,,Clear,260,2013-08-30 15:54:00
11:54 AM,95.0,68.0,41,29.93,10.0,West,12.7,-,N/A,,Clear,270,2013-08-30 16:54:00
12:54 PM,97.0,66.9,37,29.92,10.0,WSW,13.8,-,N/A,,Clear,250,2013-08-30 17:54:00
1:54 PM,98.1,66.0,35,29.90,10.0,SW,10.4,-,N/A,,Clear,230,2013-08-30 18:54:00
2:54 PM,99.0,64.9,33,29.88,10.0,WSW,13.8,18.4,N/A,,Clear,240,2013-08-30 19:54:00
3:54 PM,99.0,66.0,34,29.86,10.0,WSW,10.4,-,N/A,,Clear,240,2013-08-30 20:54:00
4:54 PM,98.1,66.0,35,29.85,10.0,SW,12.7,-,N/A,,Clear,230,2013-08-30 21:54:00
5:54 PM,97.0,66.0,36,29.84,10.0,SW,11.5,-,N/A,,Clear,230,2013-08-30 22:54:00
6:54 PM,93.0,66.9,42,29.84,10.0,SW,8.1,-,N/A,,Clear,220,2013-08-30 23:54:00
7:54 PM,86.0,69.1,57,29.84,10.0,SSW,8.1,-,N/A,,Clear,210,2013-08-31 00:54:00
8:54 PM,82.0,70.0,67,29.84,10.0,SSW,8.1,-,N/A,,Clear,210,2013-08-31 01:54:00
9:54 PM,82.9,70.0,65,29.83,10.0,SW,8.1,-,N/A,,Clear,220,2013-08-31 02:54:00
10:54 PM,81.0,70.0,69,29.83,10.0,SW,8.1,-,N/A,,Clear,220,2013-08-31 03:54:00
11:54 PM,80.1,70.0,71,29.83,10.0,South,3.5,-,N/A,,Clear,180,2013-08-31 04:54:00